| time (UTC) | temp F | wind direction | speed knots | gust knots | rain 1hr in | rain 24hr in | rain mn in | humidity % | barometer mb |
| 20260906213040 | 72 | 40 | 0.9 | 5.2 | 0.00 | 0.00 | 0.00 | 61 | 1014.4 |
| 20260906211538 | 72 | 28 | 1.7 | 8.7 | 0.00 | 0.00 | 0.00 | 60 | 1014.5 |
| 20260906210038 | 71 | 26 | 0.9 | 7.8 | 0.00 | 0.00 | 0.00 | 62 | 1014.6 |
| 20260906204549 | 70 | 338 | 1.7 | 5.2 | 0.00 | 0.00 | 0.00 | 60 | 1014.7 |
| 20260906203033 | 71 | 113 | 0.9 | 4.3 | 0.00 | 0.00 | 0.00 | 63 | 1014.8 |
| 20260906201534 | 68 | 105 | 1.7 | 4.3 | 0.00 | 0.00 | 0.00 | 66 | 1014.9 |
| 20260906200031 | 69 | 162 | 0.0 | 3.5 | 0.00 | 0.00 | 0.00 | 66 | 1015.0 |
| 20260906194528 | 68 | 178 | 0.9 | 6.1 | 0.00 | 0.00 | 0.00 | 67 | 1015.0 |
| 20260906193027 | 67 | 254 | 0.9 | 4.3 | 0.00 | 0.00 | 0.00 | 68 | 1015.0 |
| 20260906191525 | 68 | 34 | 0.9 | 7.0 | 0.00 | 0.00 | 0.00 | 68 | 1015.3 |
| 20260906190023 | 69 | 167 | 0.9 | 3.5 | 0.00 | 0.00 | 0.00 | 66 | 1015.4 |
| 20260906184521 | 68 | 231 | 0.9 | 4.3 | 0.00 | 0.00 | 0.00 | 69 | 1015.6 |
| 20260906183015 | 68 | 178 | 0.9 | 4.3 | 0.00 | 0.00 | 0.00 | 64 | 1015.8 |
| 20260906181513 | 68 | 29 | 1.7 | 4.3 | 0.00 | 0.00 | 0.00 | 60 | 1016.1 |
| 20260906180010 | 66 | 275 | 1.7 | 8.7 | 0.00 | 0.00 | 0.00 | 63 | 1016.1 |
| 20260906174503 | 64 | 284 | 2.6 | 7.8 | 0.00 | 0.00 | 0.00 | 65 | 1016.2 |
| 20260906173059 | 63 | 325 | 4.3 | 8.7 | 0.00 | 0.00 | 0.00 | 65 | 1016.2 |
| 20260906171556 | 62 | 321 | 3.5 | 8.7 | 0.00 | 0.00 | 0.00 | 68 | 1016.3 |
| 20260906170054 | 60 | 5 | 1.7 | 7.8 | 0.00 | 0.00 | 0.00 | 71 | 1016.4 |
| 20260906164550 | 58 | 16 | 1.7 | 7.8 | 0.00 | 0.00 | 0.00 | 74 | 1016.5 |
| 20260906163043 | 57 | 35 | 1.7 | 8.7 | 0.00 | 0.00 | 0.00 | 77 | 1016.7 |
| 20260906161545 | 56 | 346 | 4.3 | 7.0 | 0.00 | 0.00 | 0.00 | 78 | 1016.7 |
| 20260906160038 | 55 | 10 | 2.6 | 7.8 | 0.00 | 0.00 | 0.00 | 81 | 1016.8 |
| 20260906154543 | 54 | 5 | 3.5 | 8.7 | 0.00 | 0.00 | 0.00 | 84 | 1016.9 |
| 20260906153036 | 52 | 25 | 4.3 | 7.8 | 0.00 | 0.00 | 0.00 | 85 | 1017.0 |
| 20260906151535 | 51 | 344 | 1.7 | 3.5 | 0.00 | 0.00 | 0.00 | 91 | 1016.9 |
| 20260906150042 | 49 | 339 | 0.0 | 1.7 | 0.00 | 0.00 | 0.00 | 92 | 1017.1 |
| 20260906144530 | 49 | 339 | 0.0 | 2.6 | 0.00 | 0.00 | 0.00 | 91 | 1017.0 |
| 20260906143028 | 49 | 339 | 0.9 | 2.6 | 0.00 | 0.00 | 0.00 | 91 | 1017.0 |
| 20260906141528 | 49 | 337 | 0.9 | 2.6 | 0.00 | 0.00 | 0.00 | 91 | 1016.9 |
| 20260906140034 | 48 | 339 | 0.9 | 3.5 | 0.00 | 0.00 | 0.00 | 92 | 1016.6 |
| 20260906134525 | 48 | 339 | 0.0 | 1.7 | 0.00 | 0.00 | 0.00 | 91 | 1016.4 |
| 20260906133026 | 49 | 339 | 0.9 | 1.7 | 0.00 | 0.00 | 0.00 | 92 | 1016.4 |
| 20260906131527 | 48 | 341 | 1.7 | 3.5 | 0.00 | 0.00 | 0.00 | 92 | 1016.3 |
| 20260906130033 | 48 | 348 | 0.9 | 3.5 | 0.00 | 0.00 | 0.00 | 92 | 1016.3 |
| 20260906124522 | 49 | 355 | 0.9 | 2.6 | 0.00 | 0.00 | 0.00 | 92 | 1016.4 |
| 20260906123034 | 49 | 26 | 0.9 | 2.6 | 0.00 | 0.00 | 0.00 | 92 | 1016.5 |
| 20260906121520 | 49 | 30 | 0.0 | 1.7 | 0.00 | 0.00 | 0.00 | 92 | 1016.5 |
| 20260906120019 | 49 | 30 | 0.9 | 2.6 | 0.00 | 0.00 | 0.00 | 91 | 1016.5 |
| 20260906114520 | 49 | 30 | 0.0 | 1.7 | 0.00 | 0.00 | 0.00 | 91 | 1016.5 |
| 20260906113016 | 50 | 30 | 0.0 | 1.7 | 0.00 | 0.00 | 0.00 | 91 | 1016.5 |
| 20260906111514 | 50 | 30 | 0.0 | 0.0 | 0.00 | 0.00 | 0.00 | 91 | 1016.5 |
| 20260906110012 | 50 | 30 | 0.0 | 0.9 | 0.00 | 0.00 | 0.00 | 91 | 1016.6 |
| 20260906104524 | 50 | 30 | 0.0 | 0.9 | 0.00 | 0.00 | 0.00 | 90 | 1016.4 |
| 20260906103031 | 50 | 30 | 0.0 | 0.0 | 0.00 | 0.00 | 0.00 | 90 | 1016.4 |
| 20260906101509 | 50 | 30 | 0.0 | 0.9 | 0.00 | 0.00 | 0.00 | 90 | 1016.3 |
| 20260906100020 | 51 | 30 | 0.0 | 0.9 | 0.00 | 0.00 | 0.00 | 89 | 1016.4 |
| 20260906094505 | 51 | 30 | 0.0 | 1.7 | 0.00 | 0.00 | 0.00 | 89 | 1016.4 |
| 20260906093010 | 52 | 30 | 0.0 | 1.7 | 0.00 | 0.00 | 0.00 | 88 | 1016.4 |
| 20260906091504 | 52 | 30 | 0.0 | 0.9 | 0.00 | 0.00 | 0.00 | 87 | 1016.6 |
| 20260906090059 | 53 | 30 | 0.0 | 0.9 | 0.00 | 0.00 | 0.00 | 86 | 1016.6 |
| 20260906084601 | 53 | 30 | 0.0 | 0.9 | 0.00 | 0.00 | 0.00 | 86 | 1016.7 |
| 20260906083055 | 54 | 30 | 0.0 | 3.5 | 0.00 | 0.00 | 0.00 | 86 | 1016.8 |
| 20260906081557 | 54 | 5 | 2.6 | 3.5 | 0.00 | 0.00 | 0.00 | 85 | 1016.6 |
| 20260906080056 | 55 | 355 | 0.0 | 3.5 | 0.00 | 0.00 | 0.00 | 84 | 1016.7 |
| 20260906074553 | 55 | 355 | 2.6 | 3.5 | 0.00 | 0.00 | 0.00 | 85 | 1016.7 |
| 20260906073051 | 54 | 350 | 2.6 | 4.3 | 0.00 | 0.00 | 0.00 | 87 | 1016.8 |
| 20260906071546 | 54 | 355 | 1.7 | 3.5 | 0.00 | 0.00 | 0.00 | 89 | 1017.0 |
| 20260906070044 | 54 | 199 | 0.0 | 0.9 | 0.00 | 0.00 | 0.00 | 88 | 1017.0 |
| 20260906064542 | 54 | 199 | 0.0 | 0.0 | 0.00 | 0.00 | 0.00 | 87 | 1016.8 |
| 20260906063045 | 55 | 199 | 0.0 | 0.0 | 0.00 | 0.00 | 0.00 | 86 | 1016.7 |
| 20260906061541 | 55 | 199 | 0.0 | 0.0 | 0.00 | 0.00 | 0.00 | 86 | 1016.8 |
| 20260906060041 | 55 | 199 | 0.0 | 0.9 | 0.00 | 0.00 | 0.00 | 86 | 1016.8 |
| 20260906054558 | 55 | 199 | 0.0 | 0.0 | 0.00 | 0.00 | 0.00 | 85 | 1016.9 |
| 20260906053039 | 56 | 199 | 0.0 | 0.0 | 0.00 | 0.00 | 0.00 | 84 | 1017.0 |
| 20260906051539 | 56 | 199 | 0.0 | 0.0 | 0.00 | 0.00 | 0.00 | 84 | 1017.1 |
| 20260906050040 | 56 | 199 | 0.0 | 0.0 | 0.00 | 0.00 | 0.00 | 83 | 1017.2 |
| 20260906044538 | 56 | 199 | 0.0 | 0.0 | 0.00 | 0.00 | 0.00 | 82 | 1017.2 |
| 20260906043038 | 57 | 199 | 0.0 | 0.9 | 0.00 | 0.00 | 0.00 | 82 | 1017.2 |
| 20260906041537 | 57 | 199 | 0.0 | 0.0 | 0.00 | 0.00 | 0.00 | 81 | 1017.1 |
| 20260906040045 | 57 | 199 | 0.0 | 0.0 | 0.00 | 0.00 | 0.00 | 81 | 1017.1 |
| 20260906034547 | 58 | 199 | 0.0 | 0.0 | 0.00 | 0.00 | 0.00 | 80 | 1017.0 |
| 20260906033036 | 59 | 199 | 0.0 | 0.0 | 0.00 | 0.00 | 0.00 | 80 | 1017.0 |
| 20260906031602 | 60 | 199 | 0.0 | 0.0 | 0.00 | 0.00 | 0.00 | 78 | 1016.9 |
| 20260906030038 | 61 | 199 | 0.0 | 0.0 | 0.00 | 0.00 | 0.00 | 76 | 1016.9 |
| 20260906024553 | 61 | 199 | 0.0 | 0.0 | 0.00 | 0.00 | 0.00 | 74 | 1016.8 |
| 20260906023041 | 62 | 199 | 0.0 | 0.0 | 0.00 | 0.00 | 0.00 | 73 | 1016.9 |
| 20260906021534 | 62 | 199 | 0.0 | 0.0 | 0.00 | 0.00 | 0.00 | 73 | 1017.0 |
| 20260906020033 | 63 | 199 | 0.0 | 0.0 | 0.00 | 0.00 | 0.00 | 72 | 1016.8 |
| 20260906014533 | 63 | 199 | 0.0 | 0.9 | 0.00 | 0.00 | 0.00 | 72 | 1016.7 |
| 20260906013033 | 64 | 199 | 0.0 | 0.0 | 0.00 | 0.00 | 0.00 | 70 | 1016.5 |
| 20260906011533 | 64 | 194 | 0.0 | 0.0 | 0.00 | 0.00 | 0.00 | 71 | 1016.5 |
| 20260906010044 | 64 | 194 | 0.0 | 1.7 | 0.00 | 0.00 | 0.00 | 71 | 1016.4 |
| 20260906004531 | 65 | 195 | 0.9 | 3.5 | 0.00 | 0.00 | 0.00 | 70 | 1016.4 |
| 20260906003030 | 65 | 183 | 0.9 | 3.5 | 0.00 | 0.00 | 0.00 | 67 | 1016.5 |
| 20260906001535 | 66 | 161 | 0.9 | 2.6 | 0.00 | 0.00 | 0.00 | 67 | 1016.5 |
| 20260906000030 | 66 | 148 | 0.0 | 2.6 | 0.00 | 0.00 | 0.00 | 68 | 1016.4 |
| 20260905234529 | 66 | 178 | 0.0 | 2.6 | 0.00 | 0.00 | 0.00 | 68 | 1016.5 |
| 20260905233028 | 66 | 159 | 0.9 | 3.5 | 0.00 | 0.00 | 0.00 | 69 | 1016.5 |
| 20260905231528 | 66 | 138 | 0.0 | 2.6 | 0.00 | 0.00 | 0.00 | 75 | 1016.4 |
| 20260905230033 | 65 | 166 | 0.9 | 4.3 | 0.00 | 0.00 | 0.00 | 76 | 1016.4 |
| 20260905224527 | 65 | 144 | 1.7 | 4.3 | 0.00 | 0.00 | 0.00 | 75 | 1016.5 |
| 20260905223028 | 67 | 167 | 0.9 | 4.3 | 0.00 | 0.00 | 0.00 | 69 | 1016.6 |
| 20260905221527 | 67 | 167 | 2.6 | 5.2 | 0.00 | 0.00 | 0.00 | 70 | 1016.6 |
| 20260905220028 | 68 | 163 | 1.7 | 3.5 | 0.00 | 0.00 | 0.00 | 67 | 1016.7 |
| 20260905214525 | 68 | 190 | 0.9 | 5.2 | 0.00 | 0.00 | 0.00 | 65 | 1016.7 |